Versailles, OH

6:07 AM EDT on April 25, 2017 (GMT -0400)
Darke County

Weather History for KVES - November, 2011

Change the Weather History Date:

Thursday, November 17, 2011

  Actual Average (KDAY) Record (KDAY)
Temperature  
Mean Temperature 32 °F -  
Max Temperature 37 °F 50 °F 78 °F (1958)
Min Temperature 28 °F 33 °F 9 °F (1959)
Degree Days  
Heating Degree Days 32    
Moisture  
Dew Point 22 °F    
Average Humidity 63    
Maximum Humidity 93    
Minimum Humidity 41    
Precipitation  
Precipitation 0.00 in - - ()
Sea Level Pressure  
Sea Level Pressure 30.16 in    
Wind  
Wind Speed 10 mph (WNW)    
Max Wind Speed 25 mph    
Max Gust Speed 32 mph    
Visibility 10 miles    
Events      
Averages and records for this station are not official NWS values.
T = Trace of Precipitation, MM = Missing Value Source: NWS Daily Summary

Daily Weather History Graph

Daily Weather History Graph

Search for Another Location

Airport or City:

Trip Planner

Search our weather history database for the weather conditions in past years. The results will help you decide how hot, cold, wet, or windy it might be!

Date:

Astronomy

Nov. 17, 2011 Rise Set
Actual Time 7:25 AM EST 5:19 PM EST
Civil Twilight 6:56 AM EST 5:49 PM EST
Nautical Twilight 6:23 AM EST 6:22 PM EST
Astronomical Twilight 5:51 AM EST 6:54 PM EST
Moon 11:39 PM EST (11/17) 12:34 PM EST (11/17)
Length of Visible Light 10h 52m
Length of Day
9h 54m
Waning Gibbous, 60% of the Moon is Illuminated
Nov 17
Waning Gibbous
Nov 18
Last Quarter
Nov 25
New
Dec 2
First Quarter
Dec 10
Full

Hourly Weather History & Observations

Time (EST) Temp. Windchill Dew Point Humidity Pressure Visibility Wind Dir Wind Speed Gust Speed Precip Events Conditions
12:15 AM 32.0 °F - 30.2 °F 93% 30.10 in 10.0 mi Calm Calm - N/A   Overcast
12:55 AM 33.8 °F 28.6 °F 28.4 °F 81% 30.11 in 10.0 mi WNW 5.8 mph - N/A   Overcast
1:15 AM 33.8 °F 27.7 °F 28.4 °F 81% 30.11 in 10.0 mi WNW 6.9 mph - N/A   Overcast
1:35 AM 33.8 °F 27.7 °F 28.4 °F 81% 30.11 in 10.0 mi WNW 6.9 mph - N/A   Overcast
1:55 AM 33.8 °F 28.6 °F 28.4 °F 81% 30.11 in 10.0 mi WNW 5.8 mph - N/A   Overcast
2:15 AM 33.8 °F 27.0 °F 28.4 °F 81% 30.10 in 10.0 mi WNW 8.1 mph - N/A   Overcast
2:35 AM 33.8 °F 27.0 °F 28.4 °F 81% 30.11 in 10.0 mi WNW 8.1 mph - N/A   Overcast
2:55 AM 33.8 °F 27.7 °F 28.4 °F 81% 30.11 in 10.0 mi WNW 6.9 mph - N/A   Overcast
3:15 AM 33.8 °F 27.0 °F 28.4 °F 81% 30.11 in 10.0 mi WNW 8.1 mph - N/A   Overcast
3:35 AM 33.8 °F 27.7 °F 28.4 °F 81% 30.11 in 10.0 mi NW 6.9 mph - N/A   Overcast
4:15 AM 33.8 °F 27.7 °F 26.6 °F 75% 30.12 in 10.0 mi WNW 6.9 mph - N/A   Overcast
4:35 AM 33.8 °F 27.0 °F 26.6 °F 75% 30.12 in 10.0 mi WNW 8.1 mph - N/A   Overcast
4:55 AM 33.8 °F 27.7 °F 24.8 °F 70% 30.12 in 10.0 mi WNW 6.9 mph - N/A   Overcast
5:15 AM 33.8 °F 27.0 °F 23.0 °F 65% 30.13 in 10.0 mi WNW 8.1 mph - N/A   Overcast
5:35 AM 32.0 °F 24.8 °F 24.8 °F 75% 30.13 in 10.0 mi WNW 8.1 mph - N/A   Overcast
5:55 AM 32.0 °F 25.6 °F 23.0 °F 69% 30.12 in 10.0 mi West 6.9 mph - N/A   Mostly Cloudy
6:15 AM 32.0 °F 24.8 °F 24.8 °F 75% 30.12 in 10.0 mi West 8.1 mph - N/A   Overcast
6:35 AM 32.0 °F 24.2 °F 24.8 °F 75% 30.13 in 10.0 mi West 9.2 mph - N/A   Overcast
6:55 AM 32.0 °F 24.8 °F 24.8 °F 75% 30.13 in 10.0 mi West 8.1 mph - N/A   Mostly Cloudy
7:15 AM 32.0 °F 24.8 °F 23.0 °F 69% 30.13 in 10.0 mi West 8.1 mph - N/A   Mostly Cloudy
7:35 AM 32.0 °F 24.8 °F 23.0 °F 69% 30.14 in 10.0 mi West 8.1 mph - N/A   Mostly Cloudy
7:55 AM 32.0 °F 25.6 °F 23.0 °F 69% 30.14 in 10.0 mi West 6.9 mph - N/A   Scattered Clouds
8:15 AM 32.0 °F 24.8 °F 21.2 °F 64% 30.14 in 10.0 mi WSW 8.1 mph - N/A   Clear
8:35 AM 32.0 °F 23.6 °F 21.2 °F 64% 30.15 in 10.0 mi West 10.4 mph - N/A   Clear
8:55 AM 33.8 °F 25.3 °F 21.2 °F 60% 30.15 in 10.0 mi West 11.5 mph - N/A   Clear
9:15 AM 33.8 °F 25.8 °F 23.0 °F 65% 30.15 in 10.0 mi West 10.4 mph 18.4 mph N/A   Clear
9:35 AM 33.8 °F 25.3 °F 21.2 °F 60% 30.15 in 10.0 mi West 11.5 mph - N/A   Clear
9:55 AM 35.6 °F 26.2 °F 21.2 °F 56% 30.15 in 10.0 mi West 15.0 mph 20.7 mph N/A   Clear
10:15 AM 35.6 °F 25.2 °F 21.2 °F 56% 30.15 in 10.0 mi West 18.4 mph 24.2 mph N/A   Clear
10:35 AM 35.6 °F 24.8 °F 21.2 °F 56% 30.15 in 10.0 mi West 19.6 mph 23.0 mph N/A   Clear
10:55 AM 35.6 °F 25.9 °F 23.0 °F 60% 30.16 in 10.0 mi WNW 16.1 mph 24.2 mph N/A   Clear
11:15 AM 37.4 °F 26.9 °F 21.2 °F 52% 30.16 in 10.0 mi West 20.7 mph 26.5 mph N/A   Clear
11:35 AM 35.6 °F 24.2 °F 21.2 °F 56% 30.16 in 10.0 mi West 21.9 mph 27.6 mph N/A   Clear
11:55 AM 35.6 °F 24.5 °F 21.2 °F 56% 30.15 in 10.0 mi West 20.7 mph 28.8 mph N/A   Clear
12:15 PM 35.6 °F 24.2 °F 19.4 °F 52% 30.15 in 10.0 mi WNW 21.9 mph 28.8 mph N/A   Clear
12:35 PM 35.6 °F 25.5 °F 19.4 °F 52% 30.14 in 10.0 mi WNW 17.3 mph 27.6 mph N/A   Clear
12:55 PM 35.6 °F 24.5 °F 19.4 °F 52% 30.14 in 10.0 mi West 20.7 mph 27.6 mph N/A   Clear
1:15 PM 35.6 °F 24.2 °F 19.4 °F 52% 30.14 in 10.0 mi WNW 21.9 mph 28.8 mph N/A   Clear
1:35 PM 35.6 °F 24.0 °F 17.6 °F 48% 30.14 in 10.0 mi West 23.0 mph 29.9 mph N/A   Clear
1:55 PM 35.6 °F 24.5 °F 17.6 °F 48% 30.15 in 10.0 mi West 20.7 mph 31.1 mph N/A   Scattered Clouds
2:15 PM 35.6 °F 24.5 °F 19.4 °F 52% 30.15 in 10.0 mi West 20.7 mph 27.6 mph N/A   Scattered Clouds
2:35 PM 35.6 °F 24.5 °F 19.4 °F 52% 30.16 in 10.0 mi WNW 20.7 mph 29.9 mph N/A   Scattered Clouds
2:55 PM 35.6 °F 24.5 °F 17.6 °F 48% 30.16 in 10.0 mi WNW 20.7 mph 32.2 mph N/A   Scattered Clouds
3:15 PM 35.6 °F 24.0 °F 17.6 °F 48% 30.16 in 10.0 mi West 23.0 mph 29.9 mph N/A   Scattered Clouds
3:35 PM 35.6 °F 25.2 °F 15.8 °F 44% 30.16 in 10.0 mi WNW 18.4 mph 27.6 mph N/A   Clear
3:55 PM 35.6 °F 24.0 °F 14.0 °F 41% 30.17 in 10.0 mi WNW 23.0 mph 32.2 mph N/A   Clear
4:15 PM 35.6 °F 25.5 °F 14.0 °F 41% 30.17 in 10.0 mi WNW 17.3 mph 28.8 mph N/A   Clear
4:35 PM 33.8 °F 21.0 °F 14.0 °F 44% 30.19 in 10.0 mi West 25.3 mph 31.1 mph N/A   Clear
4:55 PM 33.8 °F 23.5 °F 15.8 °F 48% 30.19 in 10.0 mi WNW 16.1 mph 21.9 mph N/A   Clear
5:15 PM 33.8 °F 23.5 °F 17.6 °F 52% 30.21 in 10.0 mi West 16.1 mph 21.9 mph N/A   Clear
5:35 PM 32.0 °F 23.0 °F 17.6 °F 55% 30.21 in 10.0 mi WNW 11.5 mph 17.3 mph N/A   Clear
5:55 PM 32.0 °F 23.0 °F 17.6 °F 55% 30.22 in 10.0 mi West 11.5 mph 19.6 mph N/A   Clear
6:15 PM 32.0 °F 23.0 °F 17.6 °F 55% 30.22 in 10.0 mi WNW 11.5 mph 17.3 mph N/A   Clear
6:35 PM 32.0 °F 23.6 °F 17.6 °F 55% 30.23 in 10.0 mi West 10.4 mph - N/A   Clear
6:55 PM 32.0 °F 23.6 °F 17.6 °F 55% 30.24 in 10.0 mi West 10.4 mph - N/A   Clear
7:15 PM 32.0 °F 24.2 °F 19.4 °F 60% 30.25 in 10.0 mi West 9.2 mph - N/A   Clear
7:35 PM 30.2 °F 24.3 °F 19.4 °F 64% 30.25 in 10.0 mi West 5.8 mph - N/A   Clear
8:15 PM 30.2 °F 22.6 °F 21.2 °F 69% 30.26 in 10.0 mi West 8.1 mph - N/A   Clear
8:35 PM 30.2 °F 23.4 °F 21.2 °F 69% 30.26 in 10.0 mi West 6.9 mph - N/A   Clear
8:55 PM 28.4 °F 21.2 °F 21.2 °F 74% 30.27 in 10.0 mi West 6.9 mph - N/A   Clear
9:15 PM 28.4 °F 22.2 °F 21.2 °F 74% 30.27 in 10.0 mi West 5.8 mph - N/A   Clear
9:35 PM 28.4 °F 22.2 °F 19.4 °F 69% 30.28 in 10.0 mi West 5.8 mph - N/A   Clear
9:55 PM 28.4 °F 23.3 °F 19.4 °F 69% 30.29 in 10.0 mi WSW 4.6 mph - N/A   Clear
10:35 PM 28.4 °F 21.2 °F 19.4 °F 69% 30.29 in 10.0 mi WSW 6.9 mph - N/A   Clear
10:55 PM 28.4 °F 21.2 °F 19.4 °F 69% 30.29 in 10.0 mi WSW 6.9 mph - N/A   Clear
11:35 PM 28.4 °F 22.2 °F 19.4 °F 69% 30.29 in 10.0 mi WSW 5.8 mph - N/A   Clear
11:55 PM 28.4 °F 23.3 °F 19.4 °F 69% 30.29 in 10.0 mi SW 4.6 mph - N/A   Clear